20060724,000022,1468801,34.990631,-121.009208,23.5,17.371,33.513,43.546,620.48,0.0,11.023,17.104, NaN, NaN,24.285,   NaN,16.85,1007.85,96.84,16.85,280.0,297.0,4.5,4.0,292.9,294.0,6.2,4.9,NaN, NaN,14.0,67.5,57.2,1153699222,1153699222,2,10.1,000022,000022,67.5,34.990660,-121.009340,10.12,NaN,NaN,17.375, NaN,NaN,NaN, NaN, NaN
20060724,000052,1468831,34.991263,-121.007615,23.6,17.365,33.516,43.544,619.88,0.0,11.284,17.091, NaN, NaN,24.289,   NaN,16.88,1007.95,96.81,16.88,286.0,292.0,3.2,2.6,284.1,278.0,5.3,4.8,NaN, NaN,15.0,68.3,67.5,1153699252,1153699252,2,10.0,000053,000052,68.3,34.991271,-121.007795,10.22,NaN,NaN,17.369, NaN,NaN,NaN, NaN, NaN
20060724,000122,1468861,34.991853,-121.006113,23.6,17.358,33.517,43.539,624.07,0.0,11.266,17.081, NaN, NaN,24.291,   NaN,16.82,1008.03,96.78,16.82,283.0,285.0,2.9,2.1,279.6,271.4,5.4,5.1,NaN, NaN,15.0,67.7,64.1,1153699282,1153699282,2,10.1,000082,000082,67.7,34.991876,-121.006247,10.25,NaN,NaN,17.362, NaN,NaN,NaN, NaN, NaN
20060724,000152,1468891,34.992478,-121.004558,23.4,17.337,33.520,43.521,624.67,0.0,11.378,17.060, NaN, NaN,24.298,   NaN,16.85,1007.90,96.88,16.85,274.0,286.0,3.6,2.1,283.9,271.8,6.2,5.1,NaN, NaN,15.0,68.5,63.5,1153699312,1153699312,2,10.4,000112,000112,68.5,34.992508,-121.004695,9.69,NaN,NaN,17.341, NaN,NaN,NaN, NaN, NaN
20060724,000222,1468922,34.993111,-121.003012,23.3,17.316,33.521,43.503,625.27,0.0,11.714,17.046, NaN, NaN,24.305,   NaN,16.88,1007.90,96.84,16.85,277.0,283.0,2.9,2.1,277.4,270.2,5.7,5.2,NaN, NaN,15.0,66.9,60.7,1153699342,1153699342,2,10.4,000142,000142,66.9,34.993131,-121.003142,10.01,NaN,NaN,17.320, NaN,NaN,NaN, NaN, NaN
20060724,000252,1468952,34.993738,-121.001470,23.2,17.291,33.521,43.478,624.07,0.0,11.714,17.030, NaN, NaN,24.310,   NaN,16.85,1007.93,96.78,16.85,271.0,166.0,2.0,1.1,268.8,245.0,5.5,6.2,NaN, NaN,14.0,67.4,63.3,1153699372,1153699372,2,10.2,000172,000172,67.4,34.993761,-121.001605,10.08,NaN,NaN,17.295, NaN,NaN,NaN, NaN, NaN
20060724,000322,1468981,34.994370,-120.999943,23.4,17.268,33.519,43.454,629.77,0.0,11.658,17.013, NaN, NaN,24.314,   NaN,16.85,1007.95,96.84,16.85,270.0,241.0,2.2,0.9,272.3,256.9,5.6,5.6,NaN, NaN,14.0,69.1,63.2,1153699402,1153699402,2,10.0,000202,000202,69.1,34.994396,-121.000073,10.20,NaN,NaN,17.272, NaN,NaN,NaN, NaN, NaN
20060724,000352,1469011,34.995025,-120.998360,23.5,17.256,33.521,43.445,627.97,0.0,11.322,16.999, NaN, NaN,24.319,   NaN,16.96,1008.00,96.81,16.96,279.0,267.0,2.4,1.4,272.9,261.4,5.4,5.4,NaN, NaN,15.0,66.7,63.4,1153699432,1153699432,2,10.3,000233,000232,66.7,34.995020,-120.998541,10.14,NaN,NaN,17.260, NaN,NaN,NaN, NaN, NaN
20060724,000422,1469041,34.995638,-120.996880,23.2,17.241,33.519,43.429,628.57,0.0,11.677,16.983, NaN, NaN,24.321,   NaN,16.88,1008.06,96.81,16.88,261.0,261.0,2.8,2.1,273.8,267.9,6.3,5.9,NaN, NaN,15.0,67.7,63.0,1153699462,1153699462,2,9.7,000262,000262,67.7,34.995656,-120.997011,10.04,NaN,NaN,17.245, NaN,NaN,NaN, NaN, NaN
20060724,000452,1469071,34.996273,-120.995343,23.1,17.222,33.520,43.412,622.28,0.0,11.490,16.971, NaN, NaN,24.326,   NaN,16.96,1007.88,96.75,16.96,292.0,268.0,2.4,1.5,273.9,262.4,4.8,5.5,NaN, NaN,15.0,66.5,64.4,1153699492,1153699492,2,10.6,000292,000292,66.5,34.996296,-120.995470,10.14,NaN,NaN,17.226, NaN,NaN,NaN, NaN, NaN
20060724,000522,1469102,34.996933,-120.993815,23.8,17.210,33.522,43.402,627.97,0.0,11.938,16.945, NaN, NaN,24.331,   NaN,16.88,1008.06,96.75,16.88,261.0,270.0,4.0,2.1,280.8,268.3,7.1,5.6,NaN, NaN,15.0,66.9,66.6,1153699522,1153699522,2,10.3,000322,000322,66.9,34.996956,-120.993946,10.12,NaN,NaN,17.214, NaN,NaN,NaN, NaN, NaN
20060724,000552,1469131,34.997571,-120.992276,23.4,17.197,33.521,43.388,627.97,0.0,11.714,16.921, NaN, NaN,24.332,   NaN,16.90,1007.95,96.84,16.90,268.0,271.0,3.9,2.0,284.7,269.7,6.6,5.5,NaN, NaN,15.0,68.5,63.9,1153699552,1153699552,2,10.0,000352,000352,68.5,34.997596,-120.992413,10.01,NaN,NaN,17.201, NaN,NaN,NaN, NaN, NaN
20060724,000622,1469161,34.998218,-120.990728,23.3,17.170,33.522,43.363,623.47,0.0,11.565,16.894, NaN, NaN,24.340,   NaN,16.93,1007.81,96.75,16.93,266.0,271.0,4.7,2.1,286.8,268.2,7.3,5.6,NaN, NaN,15.0,66.7,62.3,1153699582,1153699582,2,10.7,000382,000382,66.7,34.998241,-120.990863,10.07,NaN,NaN,17.174, NaN,NaN,NaN, NaN, NaN
20060724,000652,1469191,34.998860,-120.989190,23.9,17.134,33.526,43.333,634.26,0.0,11.957,16.869, NaN, NaN,24.351,   NaN,16.88,1007.74,96.75,16.88,279.0,270.0,3.9,2.4,287.5,272.2,6.1,5.8,NaN, NaN,15.0,68.1,60.7,1153699612,1153699612,2,10.2,000412,000412,68.5,34.998885,-120.989325,10.37,NaN,NaN,17.138, NaN,NaN,NaN, NaN, NaN
20060724,000722,1469221,34.999505,-120.987663,23.3,17.097,33.529,43.301,630.96,0.0,13.153,16.845, NaN, NaN,24.363,   NaN,16.96,1007.63,96.75,16.96,281.0,289.0,4.0,2.8,290.5,280.4,5.9,5.0,NaN, NaN,14.0,69.0,59.5,1153699642,1153699642,2,10.3,000442,000442,69.0,34.999531,-120.987796,10.21,NaN,NaN,17.101, NaN,NaN,NaN, NaN, NaN
20060724,000752,1469252,35.000127,-120.986125,23.2,17.067,33.529,43.273,630.37,0.0,12.331,16.823, NaN, NaN,24.370,   NaN,16.85,1007.63,96.71,16.85,270.0,271.0,4.1,2.6,287.2,276.0,6.6,5.8,NaN, NaN,14.0,68.2,63.4,1153699672,1153699672,2,10.0,000472,000472,68.2,35.000152,-120.986263,10.25,NaN,NaN,17.071, NaN,NaN,NaN, NaN, NaN
20060724,000822,1469282,35.000777,-120.984595,23.2,17.052,33.527,43.255,638.45,0.0,12.592,16.819, NaN, NaN,24.371,   NaN,16.88,1007.52,96.71,16.88,283.0,290.0,4.1,2.3,290.2,273.5,5.9,5.0,NaN, NaN,15.0,67.5,60.9,1153699702,1153699702,2,10.6,000502,000502,67.5,35.000797,-120.984726,10.48,NaN,NaN,17.056, NaN,NaN,NaN, NaN, NaN
20060724,000852,1469311,35.001403,-120.983078,23.7,17.039,33.528,43.244,640.55,0.0,13.003,16.805, NaN, NaN,24.375,   NaN,16.88,1007.61,96.71,16.88,271.0,271.0,5.3,3.0,295.6,280.0,7.3,5.9,NaN, NaN,16.0,69.2,62.0,1153699732,1153699732,2,9.8,000532,000532,69.2,35.001415,-120.983221,10.08,NaN,NaN,17.043, NaN,NaN,NaN, NaN, NaN
20060724,000922,1469341,35.002020,-120.981561,23.5,17.026,33.529,43.233,633.06,0.0,12.966,16.805, NaN, NaN,24.379,   NaN,16.90,1007.68,96.84,16.90,275.0,286.0,5.8,4.0,299.0,291.5,7.4,5.5,NaN, NaN,17.0,67.4,67.0,1153699762,1153699762,2,10.0,000562,000562,67.4,35.002028,-120.981701,10.20,NaN,NaN,17.030, NaN,NaN,NaN, NaN, NaN
20060724,000952,1469371,35.002660,-120.980045,23.8,17.024,33.530,43.232,641.15,0.0,14.890,16.795, NaN, NaN,24.380,   NaN,16.85,1007.58,96.71,16.85,271.0,277.0,4.3,3.5,288.8,284.8,6.6,5.9,NaN, NaN,17.0,68.5,60.8,1153699792,1153699792,2,10.0,000592,000592,68.5,35.002668,-120.980178,10.15,NaN,NaN,17.028, NaN,NaN,NaN, NaN, NaN
20060724,001022,1469401,35.003263,-120.978518,23.8,17.030,33.528,43.236,644.45,0.0,12.928,16.785, NaN, NaN,24.378,   NaN,16.85,1007.52,96.84,16.85,289.0,286.0,5.2,3.3,303.4,285.3,6.0,5.3,NaN, NaN,17.0,68.5,63.8,1153699822,1153699822,2,9.9,000622,000622,68.5,35.003272,-120.978650,10.14,NaN,NaN,17.034, NaN,NaN,NaN, NaN, NaN
20060724,001052,1469432,35.003878,-120.977003,23.5,17.024,33.531,43.234,646.24,0.0,13.246,16.768, NaN, NaN,24.381,   NaN,16.90,1007.71,96.81,16.90,272.0,283.0,4.6,3.7,290.3,287.1,6.7,5.6,NaN, NaN,16.0,67.3,66.2,1153699852,1153699852,2,9.9,000652,000652,67.3,35.003882,-120.977135,10.12,NaN,NaN,17.028, NaN,NaN,NaN, NaN, NaN
20060724,001122,1469462,35.004497,-120.975490,23.7,17.010,33.530,43.218,642.95,0.0,13.097,16.751, NaN, NaN,24.384,   NaN,16.88,1007.71,96.81,16.88,275.0,275.0,4.6,2.9,291.8,278.6,6.5,5.6,NaN, NaN,16.0,67.2,70.6,1153699882,1153699882,2,10.0,000682,000682,67.2,35.004507,-120.975621,10.07,NaN,NaN,17.014, NaN,NaN,NaN, NaN, NaN
20060724,001152,1469491,35.005112,-120.973971,23.2,16.990,33.533,43.204,644.15,0.0,13.115,16.727, NaN, NaN,24.391,   NaN,16.85,1007.63,96.84,16.85,275.0,282.0,5.2,3.6,294.7,285.6,7.0,5.6,NaN, NaN,17.0,66.9,66.1,1153699912,1153699912,2,10.1,000712,000712,66.9,35.005123,-120.974110,10.01,NaN,NaN,16.994, NaN,NaN,NaN, NaN, NaN
20060724,001222,1469521,35.005732,-120.972475,23.9,16.960,33.537,43.179,656.13,0.0,13.227,16.706, NaN, NaN,24.401,   NaN,16.90,1007.71,96.84,16.90,282.0,280.0,4.1,3.1,290.8,281.5,5.8,5.5,NaN, NaN,17.0,67.0,62.7,1153699942,1153699942,2,9.6,000742,000742,67.0,35.005738,-120.972611,9.95,NaN,NaN,16.964, NaN,NaN,NaN, NaN, NaN
20060724,001252,1469551,35.006350,-120.970970,23.3,16.924,33.535,43.143,661.22,0.0,13.190,16.680, NaN, NaN,24.408,   NaN,16.85,1007.66,96.88,16.85,281.0,282.0,5.1,3.7,298.2,287.7,6.5,5.6,NaN, NaN,17.0,67.7,62.8,1153699972,1153699972,2,10.1,000772,000772,67.7,35.006362,-120.971103,10.04,NaN,NaN,16.928, NaN,NaN,NaN, NaN, NaN
20060724,001322,1469581,35.006895,-120.969428,23.7,16.896,33.537,43.117,651.34,0.0,13.227,16.656, NaN, NaN,24.416,   NaN,16.88,1007.85,96.84,16.88,276.0,207.0,3.4,1.6,288.2,259.0,5.8,6.6,NaN, NaN,17.0,72.7,71.5,1153700002,1153700002,2,10.4,000802,000802,72.7,35.006917,-120.969556,10.25,NaN,NaN,16.900, NaN,NaN,NaN, NaN, NaN
20060724,001352,1469612,35.007412,-120.967865,23.4,16.876,33.535,43.096,663.32,0.0,13.451,16.630, NaN, NaN,24.419,   NaN,16.82,1007.66,96.84,16.82,276.0,283.0,4.5,3.5,296.0,290.2,6.5,5.5,NaN, NaN,17.0,72.2,62.3,1153700032,1153700032,2,10.1,000832,000832,72.2,35.007435,-120.967990,10.05,NaN,NaN,16.880, NaN,NaN,NaN, NaN, NaN
20060724,001422,1469641,35.007910,-120.966305,23.5,16.847,33.535,43.068,646.24,0.0,13.508,16.595, NaN, NaN,24.426,   NaN,16.88,1007.63,96.93,16.88,280.0,288.0,3.8,2.8,291.2,283.1,5.8,5.0,NaN, NaN,18.0,71.4,72.5,1153700062,1153700062,2,10.4,000862,000862,71.4,35.007940,-120.966426,10.00,NaN,NaN,16.851, NaN,NaN,NaN, NaN, NaN
20060724,001452,1469671,35.008435,-120.964745,23.6,16.810,33.540,43.038,665.72,0.0,13.526,16.564, NaN, NaN,24.438,   NaN,16.88,1007.66,96.93,16.88,282.0,290.0,4.3,3.0,294.4,284.4,6.0,5.0,NaN, NaN,18.0,70.0,65.9,1153700092,1153700092,2,10.0,000892,000892,70.0,35.008460,-120.964871,9.84,NaN,NaN,16.814, NaN,NaN,NaN, NaN, NaN
20060724,001522,1469701,35.008982,-120.963203,23.8,16.780,33.539,43.008,658.83,0.0,13.582,16.532, NaN, NaN,24.444,   NaN,16.85,1007.83,96.88,16.85,263.0,277.0,4.8,2.3,291.5,276.4,7.4,5.3,NaN, NaN,19.0,71.2,69.0,1153700122,1153700122,2,9.8,000922,000922,71.2,35.009003,-120.963331,9.79,NaN,NaN,16.784, NaN,NaN,NaN, NaN, NaN
20060724,001552,1469731,35.009475,-120.961628,23.5,16.736,33.544,42.972,657.63,0.0,13.862,16.491, NaN, NaN,24.459,   NaN,16.82,1007.63,96.93,16.82,276.0,280.0,4.9,3.7,298.5,291.0,6.7,5.8,NaN, NaN,19.0,71.7,64.4,1153700152,1153700152,2,10.1,000952,000952,71.7,35.009502,-120.961756,9.93,NaN,NaN,16.740, NaN,NaN,NaN, NaN, NaN
20060724,001622,1469762,35.009990,-120.960056,24.0,16.700,33.541,42.935,685.79,0.0,13.601,16.460, NaN, NaN,24.465,   NaN,16.88,1007.71,96.91,16.88,279.0,281.0,4.5,3.4,296.9,288.4,6.3,5.6,NaN, NaN,19.0,71.9,69.0,1153700182,1153700182,2,10.0,000982,000982,71.9,35.010013,-120.960185,10.11,NaN,NaN,16.704, NaN,NaN,NaN, NaN, NaN
20060724,001652,1469792,35.010507,-120.958481,23.9,16.653,33.540,42.888,675.31,0.0,13.676,16.451, NaN, NaN,24.475,   NaN,16.85,1007.71,96.93,16.88,270.0,277.0,4.6,3.0,293.5,284.0,6.9,5.6,NaN, NaN,18.0,71.7,67.7,1153700212,1153700212,2,10.2,001012,001012,71.7,35.010528,-120.958608,10.24,NaN,NaN,16.657, NaN,NaN,NaN, NaN, NaN
20060724,001722,1469821,35.011035,-120.956900,23.4,16.622,33.542,42.860,669.61,0.0,13.377,16.443, NaN, NaN,24.483,   NaN,16.85,1007.63,96.88,16.85,273.0,272.0,5.4,3.7,300.3,288.8,7.3,6.3,NaN, NaN,17.0,72.6,67.7,1153700242,1153700242,2,10.2,001042,001042,72.5,35.011062,-120.957025,10.21,NaN,NaN,16.626, NaN,NaN,NaN, NaN, NaN
20060724,001752,1469851,35.011535,-120.955320,23.6,16.631,33.535,42.861,690.88,0.0,13.321,16.451, NaN, NaN,24.477,   NaN,16.82,1007.63,96.96,16.82,270.0,288.0,6.0,3.7,302.5,294.6,7.8,5.3,NaN, NaN,17.0,72.5,68.6,1153700272,1153700272,2,9.5,001072,001072,72.5,35.011560,-120.955450,9.85,NaN,NaN,16.635, NaN,NaN,NaN, NaN, NaN
20060724,001822,1469881,35.012048,-120.953743,23.3,16.656,33.530,42.879,703.47,0.0,13.470,16.467, NaN, NaN,24.467,   NaN,16.79,1007.58,96.88,16.79,273.0,283.0,4.6,4.0,294.2,293.2,6.7,5.7,NaN, NaN,17.0,71.2,66.1,1153700302,1153700302,2,10.3,001102,001102,71.2,35.012068,-120.953873,10.14,NaN,NaN,16.660, NaN,NaN,NaN, NaN, NaN
20060724,001852,1469911,35.012552,-120.952176,23.8,16.679,33.530,42.902,707.96,0.0,13.003,16.488, NaN, NaN,24.461,   NaN,16.79,1007.52,96.93,16.79,275.0,286.0,5.6,4.0,302.1,295.6,7.3,5.6,NaN, NaN,17.0,72.0,65.8,1153700332,1153700332,2,9.6,001132,001132,72.0,35.012573,-120.952315,9.83,NaN,NaN,16.683, NaN,NaN,NaN, NaN, NaN
20060724,001922,1469942,35.013058,-120.950618,23.3,16.716,33.525,42.931,718.75,0.0,12.947,16.507, NaN, NaN,24.449,   NaN,16.79,1007.58,96.93,16.82,283.0,260.0,4.8,2.1,301.1,272.1,6.2,5.8,NaN, NaN,16.0,71.7,65.9,1153700362,1153700362,2,9.9,001162,001162,71.7,35.013082,-120.950753,10.03,NaN,NaN,16.720, NaN,NaN,NaN, NaN, NaN
20060724,001952,1469971,35.013575,-120.949056,23.5,16.749,33.526,42.965,734.93,0.0,12.144,16.532, NaN, NaN,24.442,   NaN,16.79,1007.52,96.93,16.79,277.0,276.0,6.1,4.7,305.3,296.3,7.5,6.5,NaN, NaN,17.0,71.0,74.1,1153700392,1153700392,2,9.9,001192,001192,71.0,35.013590,-120.949193,10.01,NaN,NaN,16.753, NaN,NaN,NaN, NaN, NaN
20060724,002022,1470001,35.014093,-120.947505,23.6,16.772,33.524,42.983,722.34,0.0,11.546,16.556, NaN, NaN,24.435,   NaN,16.79,1007.44,96.96,16.79,270.0,278.0,6.3,3.0,303.5,285.3,8.1,5.6,NaN, NaN,18.0,72.5,71.5,1153700422,1153700422,2,10.4,001222,001222,72.5,35.014108,-120.947633,9.97,NaN,NaN,16.776, NaN,NaN,NaN, NaN, NaN
20060724,002052,1470031,35.014517,-120.945971,23.2,16.793,33.525,43.005,736.72,0.0,11.546,16.580, NaN, NaN,24.431,   NaN,16.90,1007.44,96.96,16.90,275.0,283.0,4.9,3.3,300.5,290.6,6.8,5.4,NaN, NaN,18.0,74.2,71.3,1153700452,1153700452,2,10.2,001252,001252,74.2,35.014555,-120.946046,9.96,NaN,NaN,16.797, NaN,NaN,NaN, NaN, NaN
20060724,002122,1470061,35.015010,-120.944335,23.8,16.820,33.525,43.031,763.39,0.0,11.397,16.608, NaN, NaN,24.425,   NaN,16.82,1007.42,96.99,16.82,274.0,276.0,6.0,3.2,306.2,288.4,7.6,5.8,NaN, NaN,18.0,74.5,67.3,1153700482,1153700482,2,9.9,001282,001282,74.5,35.015033,-120.944466,10.09,NaN,NaN,16.824, NaN,NaN,NaN, NaN, NaN
20060724,002152,1470092,35.015450,-120.942736,23.3,16.850,33.523,43.058,724.74,0.0,10.873,16.641, NaN, NaN,24.416,   NaN,16.85,1007.57,97.02,16.85,277.0,282.0,5.0,2.4,301.8,281.2,6.7,5.2,NaN, NaN,17.0,74.2,72.7,1153700512,1153700512,2,10.3,001312,001312,74.2,35.015475,-120.942866,10.12,NaN,NaN,16.854, NaN,NaN,NaN, NaN, NaN
20060724,002222,1470122,35.015912,-120.941146,23.6,16.895,33.522,43.099,746.91,0.0,10.873,16.674, NaN, NaN,24.405,   NaN,16.79,1007.47,96.96,16.79,273.0,271.0,6.6,3.2,307.4,285.6,8.2,6.0,NaN, NaN,17.0,73.5,71.3,1153700542,1153700542,2,10.1,001342,001342,73.5,35.015932,-120.941276,10.08,NaN,NaN,16.899, NaN,NaN,NaN, NaN, NaN
20060724,002252,1470151,35.016333,-120.939551,23.3,16.936,33.523,43.140,732.53,0.0,10.967,16.696, NaN, NaN,24.396,   NaN,16.76,1007.54,96.96,16.76,273.0,289.0,5.1,1.6,303.5,275.9,7.0,4.8,NaN, NaN,17.0,77.0,75.3,1153700572,1153700572,2,10.2,001372,001372,77.0,35.016363,-120.939676,10.03,NaN,NaN,16.940, NaN,NaN,NaN, NaN, NaN
20060724,002322,1470181,35.016708,-120.937933,23.1,16.962,33.523,43.164,737.02,0.0,10.930,16.721, NaN, NaN,24.390,   NaN,16.85,1007.39,96.99,16.85,273.0,277.0,6.1,2.9,307.8,287.0,7.8,5.6,NaN, NaN,19.0,76.2,74.9,1153700602,1153700602,2,10.1,001402,001402,76.2,35.016755,-120.938053,10.08,NaN,NaN,16.966, NaN,NaN,NaN, NaN, NaN
20060724,002352,1470211,35.017098,-120.936310,23.2,16.983,33.526,43.188,855.37,0.0,11.023,16.721, NaN, NaN,24.387,   NaN,16.85,1007.52,97.02,16.85,273.0,279.0,5.7,2.7,306.3,286.4,7.5,5.4,NaN, NaN,19.0,76.7,74.5,1153700632,1153700632,2,10.1,001432,001432,76.7,35.017140,-120.936431,10.06,NaN,NaN,16.987, NaN,NaN,NaN, NaN, NaN
20060724,002422,1470241,35.017492,-120.934675,23.4,16.990,33.526,43.195,781.07,0.0,11.565,16.730, NaN, NaN,24.385,   NaN,16.88,1007.44,97.02,16.88,269.0,272.0,5.7,1.7,304.6,275.7,7.7,5.4,NaN, NaN,19.0,77.2,74.0,1153700662,1153700662,2,10.0,001462,001462,77.2,35.017540,-120.934805,10.10,NaN,NaN,16.994, NaN,NaN,NaN, NaN, NaN
20060724,002452,1470272,35.017877,-120.933046,24.0,16.975,33.531,43.186,759.49,0.0,11.340,16.740, NaN, NaN,24.393,   NaN,16.82,1007.44,97.06,16.82,267.0,227.0,5.7,1.4,304.0,267.2,7.8,6.2,NaN, NaN,17.0,77.4,73.1,1153700692,1153700692,2,9.8,001492,001492,77.4,35.017910,-120.933180,10.17,NaN,NaN,16.979, NaN,NaN,NaN, NaN, NaN
20060724,002522,1470302,35.018273,-120.931411,23.4,16.969,33.534,43.184,730.73,0.0,11.546,16.755, NaN, NaN,24.397,   NaN,16.88,1007.42,97.06,16.88,270.0,271.0,5.8,2.0,304.7,277.8,7.8,5.5,NaN, NaN,16.0,76.6,71.8,1153700722,1153700722,2,10.3,001522,001522,76.6,35.018298,-120.931540,10.34,NaN,NaN,16.973, NaN,NaN,NaN, NaN, NaN
20060724,002552,1470331,35.018672,-120.929781,23.8,16.986,33.529,43.194,727.44,0.0,11.359,16.768, NaN, NaN,24.388,   NaN,16.88,1007.39,97.09,16.88,276.0,237.0,6.2,2.0,309.0,270.4,7.7,6.5,NaN, NaN,16.0,75.4,72.9,1153700752,1153700752,2,10.1,001552,001552,75.4,35.018690,-120.929913,10.08,NaN,NaN,16.990, NaN,NaN,NaN, NaN, NaN
20060724,002622,1470361,35.019050,-120.928146,23.5,17.014,33.526,43.218,718.45,0.0,11.303,16.785, NaN, NaN,24.380,   NaN,16.85,1007.42,97.09,16.85,267.0,214.0,4.7,1.3,298.2,264.0,7.1,6.3,NaN, NaN,16.0,77.2,72.7,1153700782,1153700782,2,9.9,001582,001582,77.2,35.019087,-120.928276,10.18,NaN,NaN,17.018, NaN,NaN,NaN, NaN, NaN
20060724,002652,1470391,35.019443,-120.926500,23.8,17.031,33.528,43.237,725.64,0.0,11.434,16.805, NaN, NaN,24.377,   NaN,16.85,1007.42,97.02,16.85,267.0,133.0,6.0,0.8,304.1,251.1,8.1,5.7,NaN, NaN,16.0,76.7,75.4,1153700812,1153700812,2,9.8,001612,001612,76.7,35.019477,-120.926633,10.34,NaN,NaN,17.035, NaN,NaN,NaN, NaN, NaN
20060724,002722,1470421,35.019817,-120.924846,23.4,17.047,33.528,43.252,689.69,0.0,11.079,16.819, NaN, NaN,24.374,   NaN,16.82,1007.27,97.06,16.82,269.0,5.0,4.5,1.1,297.2,255.1,6.9,4.0,NaN, NaN,16.0,76.5,73.9,1153700842,1153700842,2,10.4,001642,001642,76.5,35.019858,-120.924981,10.30,NaN,NaN,17.051, NaN,NaN,NaN, NaN, NaN
20060724,002752,1470452,35.020212,-120.923186,24.0,17.067,33.527,43.271,713.65,0.0,11.322,16.836, NaN, NaN,24.368,   NaN,16.85,1007.39,97.02,16.88,274.0,255.0,5.1,0.9,303.6,266.3,7.1,5.5,NaN, NaN,16.0,77.5,71.6,1153700872,1153700872,2,10.2,001672,001672,77.5,35.020245,-120.923323,10.40,NaN,NaN,17.071, NaN,NaN,NaN, NaN, NaN
20060724,002822,1470481,35.020590,-120.921530,23.4,17.085,33.528,43.290,687.59,0.0,11.695,16.879, NaN, NaN,24.365,   NaN,16.85,1007.15,97.09,16.85,270.0,236.0,5.4,1.5,302.3,268.0,7.5,6.2,NaN, NaN,16.0,76.5,73.3,1153700902,1153700902,2,10.1,001702,001702,77.5,35.020623,-120.921666,10.10,NaN,NaN,17.089, NaN,NaN,NaN, NaN, NaN
20060724,002852,1470511,35.020710,-120.919908,23.2,17.102,33.528,43.305,719.95,0.0,11.639,16.918, NaN, NaN,24.361,   NaN,16.85,1007.36,97.06,16.85,262.0,210.0,3.3,1.5,306.9,282.5,6.3,6.3,NaN, NaN,15.0,95.7,94.5,1153700932,1153700932,2,9.3,001732,001732,94.5,35.020767,-120.920031,9.79,NaN,NaN,17.106, NaN,NaN,NaN, NaN, NaN
20060724,002922,1470541,35.021038,-120.918726,23.2,17.167,33.527,43.366,707.36,0.0,11.397,16.949, NaN, NaN,24.345,   NaN,16.88,1006.90,96.99,16.88,283.0,292.0,6.9,4.6,286.8,282.1,7.0,4.6,NaN, NaN,17.0,29.9,45.3,1153700962,1153700962,2,5.2,001762,001762,29.9,35.020982,-120.918861,6.32,NaN,NaN,17.171, NaN,NaN,NaN, NaN, NaN
20060724,002952,1470571,35.021523,-120.918506,23.1,17.248,33.517,43.432,740.02,0.0,11.359,16.975, NaN, NaN,24.318,   NaN,16.90,1006.98,97.02,16.90,304.0,307.0,8.2,7.9,290.8,293.6,7.4,7.0,NaN, NaN,19.0,357.5,25.2,1153700992,1153700992,2,3.1,001792,001792,357.5,35.021418,-120.918590,2.70,NaN,NaN,17.252, NaN,NaN,NaN, NaN, NaN
20060724,003022,1470602,35.021837,-120.918530,23.5,17.263,33.524,43.455,743.02,0.0,11.695,16.986, NaN, NaN,24.319,   NaN,16.85,1006.98,96.99,16.88,318.0,320.0,8.9,7.6,294.3,295.5,8.1,6.8,NaN, NaN,20.0,341.4,18.2,1153701022,1153701022,2,1.8,001822,001822,341.4,35.021720,-120.918561,1.50,NaN,NaN,17.267, NaN,NaN,-0.1, NaN, NaN
20060724,003052,1470632,35.022057,-120.918588,23.5,17.271,33.528,43.468,728.63,0.0,11.322,16.999, NaN, NaN,24.320,   NaN,16.88,1007.09,96.96,16.88,337.0,334.0,7.9,7.8,306.1,302.8,7.1,7.0,NaN, NaN,19.0,331.7,322.4,1153701052,1153701052,2,1.6,001852,001852,331.7,35.021943,-120.918600,0.95,NaN,NaN,17.275, NaN,NaN,-0.1, NaN, NaN
20060724,003122,1470661,35.022237,-120.918665,23.0,17.278,33.527,43.473,718.45,0.0,11.135,17.005, NaN, NaN,24.318,   NaN,16.85,1006.85,96.99,16.85,350.0,346.0,6.7,8.3,311.9,307.8,5.9,7.5,NaN, NaN,18.0,323.2,354.2,1153701082,1153701082,2,0.9,001883,001882,323.2,35.022120,-120.918635,0.75,NaN,NaN,17.282, NaN,NaN,-0.1, NaN, NaN
20060724,003152,1470691,35.022387,-120.918751,22.8,17.276,33.529,43.474,719.35,0.0,10.911,17.009, NaN, NaN,24.320,   NaN,16.90,1006.90,96.93,16.90,358.0,353.0,9.0,9.0,316.8,311.3,8.2,8.2,NaN, NaN,18.0,319.0,343.6,1153701112,1153701112,2,1.5,001912,001912,319.0,35.022268,-120.918710,0.73,NaN,NaN,17.280, NaN,NaN,-0.1, NaN, NaN
20060724,003222,1470721,35.022538,-120.918890,23.4,17.271,33.530,43.470,717.85,0.0,11.060,17.012, NaN, NaN,24.322,   NaN,16.85,1006.98,97.02,16.85,356.0,355.0,8.1,8.2,313.3,312.2,7.3,7.5,NaN, NaN,17.0,317.7,316.4,1153701142,1153701142,2,1.4,001942,001942,317.7,35.022423,-120.918843,0.87,NaN,NaN,17.275, NaN,NaN,-0.2, NaN, NaN
20060724,003252,1470751,35.022700,-120.919021,23.4,17.271,33.531,43.472,702.87,0.0,11.228,17.017, NaN, NaN,24.323,   NaN,16.90,1006.85,96.93,16.93,359.0,354.0,9.2,9.1,316.4,310.9,8.3,8.2,NaN, NaN,17.0,317.5,325.4,1153701172,1153701172,2,1.6,001972,001972,317.5,35.022578,-120.918975,0.78,NaN,NaN,17.275, NaN,NaN,-0.2, NaN, NaN
20060724,003322,1470782,35.022832,-120.919153,23.6,17.278,33.527,43.474,704.67,0.0,11.228,17.020, NaN, NaN,24.318,   NaN,16.88,1006.83,96.93,16.88,347.0,345.0,7.8,8.4,304.0,301.9,7.2,7.8,NaN, NaN,17.0,318.1,329.8,1153701202,1153701202,2,1.4,002002,002002,318.1,35.022717,-120.919108,0.64,NaN,NaN,17.282, NaN,NaN,-0.2, NaN, NaN
20060724,003352,1470812,35.022972,-120.919250,23.0,17.283,33.530,43.481,692.68,0.0,11.079,17.020, NaN, NaN,24.319,   NaN,16.85,1006.95,96.93,16.90,331.0,332.0,6.6,7.9,292.9,294.5,6.0,7.3,NaN, NaN,17.0,325.0,334.8,1153701232,1153701232,2,1.7,002032,002032,325.0,35.022855,-120.919225,0.61,NaN,NaN,17.287, NaN,NaN,-0.2, NaN, NaN
20060724,003422,1470841,35.023110,-120.919318,23.3,17.286,33.530,43.484,692.08,0.0,11.172,17.030, NaN, NaN,24.319,   NaN,16.90,1007.01,96.96,16.90,317.0,323.0,8.8,8.0,282.5,288.6,8.3,7.4,NaN, NaN,17.0,329.2,14.9,1153701262,1153701262,2,1.2,002062,002062,329.2,35.022990,-120.919296,0.65,NaN,NaN,17.290, NaN,NaN,0.7, NaN, NaN
20060724,003452,1470871,35.023290,-120.919395,22.9,17.286,33.529,43.483,673.81,0.0,11.247,17.030, NaN, NaN,24.318,   NaN,16.93,1007.20,97.06,16.93,322.0,324.0,7.7,8.2,279.8,282.3,7.0,7.5,NaN, NaN,17.0,322.5,304.8,1153701292,1153701292,2,1.3,002092,002092,322.5,35.023172,-120.919363,0.79,NaN,NaN,17.290, NaN,NaN,5.6, NaN, NaN
20060724,003522,1470901,35.023458,-120.919473,23.5,17.286,33.528,43.482,674.41,0.0,11.284,17.033, NaN, NaN,24.317,   NaN,16.88,1007.15,96.99,16.88,327.0,327.0,7.4,8.0,282.6,282.8,6.9,7.5,242.1, NaN,17.0,318.4,333.9,1153701322,1153701322,2,1.3,002122,002122,318.4,35.023345,-120.919426,0.49,NaN,NaN,17.290, NaN,NaN,10.3, NaN, NaN
20060724,003552,1470931,35.023602,-120.919533,23.5,17.287,33.525,43.479,664.52,0.0,11.621,17.033, NaN, NaN,24.315,   NaN,16.90,1007.25,97.06,16.90,330.0,331.0,6.3,7.7,284.0,285.5,5.9,7.3,242.2, NaN,17.0,316.5,333.2,1153701352,1153701352,2,0.9,002152,002152,316.5,35.023487,-120.919485,0.32,NaN,NaN,17.291, NaN,NaN,10.4, NaN, NaN
20060724,003622,1470962,35.023733,-120.919598,23.6,17.288,33.522,43.477,658.83,0.0,11.135,17.036, NaN, NaN,24.312,   NaN,16.85,1007.07,97.06,16.96,330.0,336.0,6.4,7.3,282.3,289.1,5.9,6.8,242.6, NaN,17.0,315.0,317.2,1153701382,1153701382,2,1.1,002182,002182,315.0,35.023618,-120.919551,0.50,NaN,NaN,17.292, NaN,NaN,10.2, NaN, NaN